STARLINK-30769, 58138

Orbit data source: Space-Track

STARLINK-30769, 58138 is a payload satellite owned by SpaceX/Seattle (US) in LEO that was launched on Sun, 22 Oct 2023 UTC via an FALCON 9 launch vehicle from the Air Force Eastern Test Range (AFETR). Payload-class satellites include a variety of spacecraft equipped with specific instruments for various scientific and technological missions. These include communications satellites like Starlink; space stations such as the ISS; scientific satellites like the Hubble; Earth observation satellites from companies like Planet Labs, Umbra, and HawkEye 360; GPS; miniature CubeSats for education and research; and military/defense satellites.

Loading next visibility...
Identifier
58138, 2023-162W
Orbit
LEO
Country
Flag of USUS
Related business
Manufacturer
SpaceX/Seattle
Mission
Operational Commercial Communications
Bus & Motor
STARLINK V2M, Unknown motor
Mass
730 kg wet, ~700 kg dry
Launch date (UTC)
2023-10-22 (2 years ago)
Launch vehicle
FALCON 9
Launch site
Air Force Eastern Test Range (AFETR)
Object type
Payload
Rocket body
Debris
Shape & HBR
Box + 2 Pan, 17.7 m
Radar Cross Section
33.884 m², Large (>1 m²)

Expand to show TLE details & history
Last TLE update: 1 day ago

TLE from 1 day ago
0 STARLINK-30769
1 58138U 23162W   25348.38414726 -.00000100  00000-0  76358-5 0  9992
2 58138  43.0037 236.9642 0001323 261.0662  99.0031 15.02528016119461
Epoch: 2025-12-14T09:13Z
TLE epoch observation values (Epoch: 2025-12-14T09:13:10.323Z)
Latitude
0.00002°
Longitude
15.37337°
Altitude
559.026 km
Speed
7.584 km/s
True Right ascension
15h 47m 51s
True Declination
0° 00' 00"
Sunlit
Object was in daylight at epoch
Visualization orbit readout
Latitude
Unknown
Longitude
Unknown
Altitude
Unknown
Speed
Unknown
Apparent Right ascension
Unknown
Apparent Declination
Unknown
Sunlit
N/A
Visualization observer readout
Local Sidereal Time
17:25:42
Azimuth
Unknown
Elevation
Unknown
Doppler factor
Unknown
Orbital elements
Apogee altitude
561.945 km
Perigee altitude
560.109 km
Semi-major axis
6,939.164 km
Eccentricity
0.00013
Inclination
43.0037°
RAAN
236.9642°
Arg. of periapsis
261.0662°
True anomaly
99.01807°
Mean anomaly
99.0031°
Eccentric anomaly
99.01059°
Mean motion
3.75476 °/min
Orbital period
95.88 mins
BSTAR
0.0000076358
Loading maneuver chart data...
Computing Atmospheric mass density...
Loading historical data...
Loading historical data...
Loading historical data...
Loading historical data...
Loading historical data...
Loading historical data...
Loading historical data...

Documentation

Showing up to 5 results
|